Weather History for PHMK - April, 2014

Change the Weather History Date:

Thursday, April 17, 2014

  Actual Average Record
Temperature  
Mean Temperature 76 °F -  
Max Temperature 81 °F 79 °F 92 °F (1981)
Min Temperature 71 °F 66 °F 42 °F (2011)
Cooling Degree Days 11    
Growing Degree Days 26 (Base 50)    
Moisture  
Dew Point 69 °F    
Average Humidity 84    
Maximum Humidity 97    
Minimum Humidity 69    
Precipitation  
Precipitation 0.03 in - - ()
Sea Level Pressure  
Sea Level Pressure 30.11 in    
Wind  
Wind Speed 12 mph (NE)    
Max Wind Speed 17 mph    
Max Gust Speed 30 mph    
Visibility 10 miles    
Events      
Averages and records for this station are not official NWS values.
T = Trace of Precipitation, MM = Missing Value Source: NWS Daily Summary

Daily Weather History Graph

Daily Weather History Graph

Search for Another Location

Airport or City:

Trip Planner

Search our weather history database for the weather conditions in past years. The results will help you decide how hot, cold, wet, or windy it might be!

Date:

Astronomy

Apr. 17, 2014 Rise Set
Actual Time 6:07 AM HST 6:48 PM HST
Civil Twilight 5:44 AM HST 7:11 PM HST
Nautical Twilight 5:18 AM HST 7:37 PM HST
Astronomical Twilight 4:51 AM HST 8:04 PM HST
Moon 9:29 PM HST (4/17) 8:02 AM HST (4/17)
Length of Visible Light 13h 26m
Length of Day
12h 40m
Waning Gibbous, 92% of the Moon is Illuminated
Apr 17
Waning Gibbous
Apr 21
Last Quarter
Apr 28
New
May 6
First Quarter
May 14
Full

Hourly Weather History & Observations

Time (HST) Temp. Heat Index Dew Point Humidity Pressure Visibility Wind Dir Wind Speed Gust Speed Precip Events Conditions
12:54 AM 71.1 °F - 68.0 °F 90% 30.14 in 10.0 mi NE 11.5 mph 19.6 mph N/A   Partly Cloudy
1:54 AM 71.1 °F - 66.9 °F 87% 30.12 in 10.0 mi NE 12.7 mph 17.3 mph N/A   Partly Cloudy
2:54 AM 71.1 °F - 68.0 °F 90% 30.09 in 10.0 mi NE 8.1 mph 17.3 mph N/A   Partly Cloudy
3:54 AM 71.1 °F - 66.9 °F 87% 30.09 in 10.0 mi ENE 12.7 mph - N/A   Mostly Cloudy
4:54 AM 71.1 °F - 66.9 °F 87% 30.10 in 10.0 mi NE 9.2 mph 21.9 mph N/A   Clear
5:54 AM 71.1 °F - 66.9 °F 87% 30.11 in 10.0 mi NE 12.7 mph 19.6 mph 0.01 in   Clear
6:54 AM 72.0 °F - 68.0 °F 87% 30.13 in 10.0 mi NE 10.4 mph 18.4 mph 0.01 in   Partly Cloudy
7:54 AM 75.0 °F - 69.1 °F 82% 30.14 in 10.0 mi ENE 15.0 mph 21.9 mph N/A   Clear
8:54 AM 75.0 °F - 69.1 °F 82% 30.15 in 10.0 mi NE 12.7 mph 19.6 mph N/A   Scattered Clouds
9:54 AM 77.0 °F - 70.0 °F 79% 30.13 in 10.0 mi NNE 17.3 mph 28.8 mph N/A   Scattered Clouds
10:54 AM 79.0 °F - 70.0 °F 74% 30.13 in 10.0 mi NE 12.7 mph 27.6 mph N/A   Scattered Clouds
11:54 AM 81.0 °F 84.9 °F 71.1 °F 72% 30.10 in 10.0 mi NE 15.0 mph 25.3 mph N/A   Scattered Clouds
12:54 PM 81.0 °F 84.4 °F 70.0 °F 69% 30.09 in 10.0 mi NE 16.1 mph 27.6 mph N/A   Scattered Clouds
1:54 PM 80.1 °F 82.9 °F 69.1 °F 69% 30.06 in 10.0 mi NNE 12.7 mph 28.8 mph N/A   Partly Cloudy
2:54 PM 80.1 °F 83.2 °F 70.0 °F 71% 30.04 in 10.0 mi NNE 17.3 mph 25.3 mph N/A   Partly Cloudy
3:54 PM 78.1 °F - 70.0 °F 76% 30.04 in 10.0 mi NNE 15.0 mph 29.9 mph N/A   Scattered Clouds
4:54 PM 77.0 °F - 70.0 °F 79% 30.06 in 10.0 mi NNE 17.3 mph 26.5 mph N/A   Partly Cloudy
5:54 PM 75.0 °F - 70.0 °F 84% 30.07 in 10.0 mi NNE 13.8 mph 20.7 mph 0.01 in   Scattered Clouds
6:54 PM 73.0 °F - 70.0 °F 90% 30.10 in 10.0 mi NE 10.4 mph 18.4 mph N/A   Clear
7:54 PM 73.0 °F - 70.0 °F 90% 30.12 in 10.0 mi NNE 9.2 mph 17.3 mph N/A   Clear
8:54 PM 73.0 °F - 70.0 °F 90% 30.13 in 10.0 mi NNE 9.2 mph - N/A   Clear
9:54 PM 73.0 °F - 71.1 °F 93% 30.14 in 10.0 mi NNE 10.4 mph 18.4 mph N/A   Clear
10:54 PM 72.0 °F - 71.1 °F 97% 30.14 in 10.0 mi NNE 12.7 mph 23.0 mph N/A   Partly Cloudy
11:54 PM 73.0 °F - 71.1 °F 93% 30.14 in 10.0 mi NNE 8.1 mph - N/A   Partly Cloudy